Location: Igon
(43.1667°N, 0.2333°W)
Time: 15:22:50
(UTC+00:00)

Nadezhda 3 Rocket - Pass Details

Date: 29 November 2020
Orbit: 956 x 1000 km, 82.9° (Epoch: 24 January)

Event Time Altitude Azimuth Distance (km) Brightness Sun altitude
Rises 06:27:25 0° 346° (NNW) 3,712 6.7 -8.0°
Reaches altitude 10° 06:30:03 10° 341° (NNW) 2,753 6.0 -7.6°
Maximum altitude 06:36:00 46° 270° (W) 1,295 4.3 -6.6°
Drops below altitude 10° 06:41:52 10° 199° (SSW) 2,706 6.4 -5.6°
Sets 06:44:26 0° 194° (SSW) 3,642 7.2 -5.2°
